{"data":{"norad_id":62655,"intl_designator":"2025-009AY","name":"TRANSPORTER-12 OBJECT AY","alt_names":[],"object_type":"PAYLOAD","status":"ACTIVE","operator":null,"country":"TBD","launch_date":"2025-01-14","launch_site_code":"AFWTR","launch_vehicle":null,"mission":null,"orbit_class":"UNKNOWN","rcs_meters":null,"size_class":null,"mass_kg":null,"dimensions":null,"purposes":[],"wikipedia_slug":null,"has_3d_model":false,"image_url":null,"decayed_at":null,"tle_current":{"epoch":"2026-09-21T05:21:57.915072Z","epoch_age_seconds":255094,"freshness":"STALE","line1":"1 62655U 25009AY  26264.22358698  .00022152  00000+0  45602-3 0  9994","line2":"2 62655  97.3986 352.2844 0000506 239.8796 120.2403 15.45954482 94014","mean_motion":15.45954482,"eccentricity":5.06e-5,"inclination_deg":97.3986,"raan_deg":352.2844,"arg_perigee_deg":239.8796,"mean_anomaly_deg":120.2403,"bstar":0.00045602,"rev_number":9401,"period_min":93.146338832504,"perigee_km":428.23053912886,"apogee_km":428.91937837909,"semimajor_km":6806.711958754,"source":"CELESTRAK","updated_at":"2026-09-23T09:00:21.541081Z"}}}